| time (UTC) | temp F | wind direction | speed MPH | gust MPH | rain 1hr in | rain 24hr in | rain mn in | humidity % | barometer mb |
| 20260510163016 | 54 | 237 | 12.0 | 22.0 | 0.00 | 0.20 | 0.00 | 58 | 1013.3 |
| 20260510161513 | 53 | 246 | 10.0 | 19.0 | 0.00 | 0.20 | 0.00 | 60 | 1013.2 |
| 20260510160010 | 53 | 226 | 10.0 | 17.0 | 0.00 | 0.20 | 0.00 | 62 | 1013.2 |
| 20260510154510 | 52 | 279 | 10.0 | 19.0 | 0.00 | 0.20 | 0.00 | 64 | 1013.1 |
| 20260510153007 | 52 | 248 | 10.0 | 18.0 | 0.00 | 0.20 | 0.00 | 66 | 1012.9 |
| 20260510151505 | 52 | 282 | 9.0 | 17.0 | 0.00 | 0.20 | 0.00 | 67 | 1012.7 |
| 20260510150002 | 51 | 240 | 10.0 | 18.0 | 0.00 | 0.20 | 0.00 | 68 | 1012.5 |
| 20260510144600 | 50 | 248 | 10.0 | 19.0 | 0.00 | 0.20 | 0.00 | 68 | 1012.4 |
| 20260510143057 | 50 | 221 | 9.0 | 15.0 | 0.00 | 0.20 | 0.00 | 71 | 1012.4 |
| 20260510141557 | 50 | 244 | 12.0 | 18.0 | 0.00 | 0.20 | 0.00 | 69 | 1012.3 |
| 20260510134552 | 49 | 269 | 12.0 | 17.0 | 0.00 | 0.20 | 0.00 | 71 | 1012.0 |
| 20260510133050 | 49 | 304 | 11.0 | 16.0 | 0.00 | 0.20 | 0.00 | 72 | 1011.9 |
| 20260510131552 | 49 | 277 | 8.0 | 15.0 | 0.00 | 0.20 | 0.00 | 72 | 1011.9 |
| 20260510130045 | 49 | 294 | 8.0 | 17.0 | 0.00 | 0.20 | 0.00 | 72 | 1011.7 |
| 20260510124644 | 49 | 238 | 8.0 | 14.0 | 0.00 | 0.20 | 0.00 | 75 | 1011.5 |
| 20260510123042 | 48 | 274 | 8.0 | 15.0 | 0.00 | 0.20 | 0.00 | 75 | 1011.5 |
| 20260510121640 | 48 | 260 | 7.0 | 12.0 | 0.00 | 0.20 | 0.00 | 77 | 1011.2 |
| 20260510120036 | 48 | 217 | 7.0 | 12.0 | 0.00 | 0.20 | 0.00 | 76 | 1010.8 |
| 20260510114534 | 49 | 254 | 6.0 | 13.0 | 0.00 | 0.20 | 0.00 | 81 | 1010.7 |
| 20260510113037 | 48 | 254 | 4.0 | 13.0 | 0.00 | 0.20 | 0.00 | 84 | 1010.6 |
| 20260510111531 | 48 | 246 | 8.0 | 12.0 | 0.00 | 0.20 | 0.00 | 84 | 1010.3 |
| 20260510110033 | 48 | 235 | 8.0 | 13.0 | 0.00 | 0.20 | 0.00 | 82 | 1009.9 |
| 20260510104524 | 47 | 250 | 6.0 | 11.0 | 0.00 | 0.20 | 0.00 | 84 | 1009.7 |
| 20260510103024 | 47 | 214 | 6.0 | 11.0 | 0.00 | 0.20 | 0.00 | 86 | 1009.3 |
| 20260510101519 | 47 | 236 | 6.0 | 13.0 | 0.00 | 0.20 | 0.00 | 82 | 1009.0 |
| 20260510100015 | 48 | 223 | 7.0 | 11.0 | 0.00 | 0.20 | 0.00 | 84 | 1008.8 |
| 20260510094513 | 48 | 240 | 4.0 | 10.0 | 0.00 | 0.20 | 0.00 | 87 | 1008.4 |
| 20260510093009 | 48 | 212 | 2.0 | 7.0 | 0.00 | 0.20 | 0.00 | 90 | 1008.2 |
| 20260510091507 | 48 | 210 | 3.0 | 7.0 | 0.00 | 0.20 | 0.00 | 90 | 1008.0 |
| 20260510090005 | 48 | 207 | 2.0 | 6.0 | 0.00 | 0.20 | 0.00 | 91 | 1007.8 |
| 20260510084505 | 48 | 233 | 3.0 | 8.0 | 0.00 | 0.20 | 0.00 | 93 | 1007.8 |
| 20260510083113 | 49 | 221 | 2.0 | 7.0 | 0.00 | 0.20 | 0.00 | 93 | 1007.8 |
| 20260510081610 | 49 | 210 | 2.0 | 9.0 | 0.00 | 0.20 | 0.00 | 93 | 1007.7 |
| 20260510080101 | 50 | 244 | 4.0 | 12.0 | 0.00 | 0.20 | 0.00 | 92 | 1007.7 |
| 20260510074603 | 50 | 243 | 8.0 | 12.0 | 0.00 | 0.20 | 0.00 | 93 | 1007.6 |
| 20260510073053 | 51 | 225 | 6.0 | 10.0 | 0.00 | 0.20 | 0.00 | 93 | 1007.4 |
| 20260510071550 | 51 | 230 | 5.0 | 12.0 | 0.00 | 0.20 | 0.00 | 93 | 1006.9 |
| 20260510070053 | 51 | 217 | 4.0 | 13.0 | 0.00 | 0.20 | 0.00 | 92 | 1006.8 |
| 20260510064600 | 51 | 207 | 6.0 | 13.0 | 0.00 | 0.20 | 0.00 | 93 | 1006.9 |
| 20260510063046 | 50 | 203 | 5.0 | 9.0 | 0.00 | 0.20 | 0.00 | 93 | 1006.8 |
| 20260510061545 | 50 | 226 | 5.0 | 11.0 | 0.00 | 0.20 | 0.00 | 92 | 1006.4 |
| 20260510060046 | 51 | 214 | 6.0 | 13.0 | 0.00 | 0.20 | 0.00 | 92 | 1006.3 |
| 20260510054543 | 51 | 211 | 6.0 | 12.0 | 0.00 | 0.20 | 0.00 | 92 | 1006.4 |
| 20260510053041 | 50 | 203 | 8.0 | 14.0 | 0.00 | 0.20 | 0.00 | 92 | 1006.7 |
| 20260510051539 | 50 | 207 | 7.0 | 0.0 | 0.00 | 0.00 | 0.00 | 93 | 1006.6 |
| 20260510050038 | 50 | 218 | 6.0 | 12.0 | 0.00 | 0.20 | 0.00 | 94 | 1006.5 |
| 20260510044549 | 50 | 207 | 5.0 | 10.0 | 0.00 | 0.20 | 0.00 | 93 | 1006.3 |
| 20260510043032 | 50 | 221 | 5.0 | 11.0 | 0.00 | 0.20 | 0.00 | 94 | 1006.2 |
| 20260510041530 | 50 | 196 | 5.0 | 11.0 | 0.00 | 0.20 | 0.00 | 93 | 1005.9 |
| 20260510040026 | 50 | 226 | 5.0 | 13.0 | 0.00 | 0.20 | 0.20 | 93 | 1005.7 |
| 20260510034525 | 51 | 153 | 6.0 | 11.0 | 0.00 | 0.20 | 0.20 | 93 | 1005.5 |
| 20260510033025 | 51 | 240 | 4.0 | 11.0 | 0.01 | 0.20 | 0.20 | 94 | 1005.6 |
| 20260510031525 | 51 | 221 | 6.0 | 10.0 | 0.03 | 0.20 | 0.20 | 93 | 1005.3 |
| 20260510030034 | 51 | 226 | 5.0 | 10.0 | 0.12 | 0.20 | 0.20 | 93 | 1004.9 |
| 20260510024522 | 52 | 219 | 4.0 | 13.0 | 0.20 | 0.20 | 0.20 | 92 | 1004.8 |
| 20260510023021 | 52 | 224 | 6.0 | 13.0 | 0.19 | 0.19 | 0.19 | 92 | 1004.8 |
| 20260510021522 | 52 | 224 | 7.0 | 17.0 | 0.17 | 0.17 | 0.17 | 92 | 1005.3 |
| 20260510020018 | 54 | 282 | 15.0 | 28.0 | 0.08 | 0.08 | 0.08 | 84 | 1005.6 |
| 20260510014515 | 57 | 230 | 6.0 | 13.0 | 0.00 | 0.00 | 0.00 | 77 | 1003.8 |
| 20260510013015 | 58 | 182 | 6.0 | 15.0 | 0.00 | 0.00 | 0.00 | 76 | 1003.3 |
| 20260510011512 | 58 | 181 | 8.0 | 13.0 | 0.00 | 0.00 | 0.00 | 76 | 1003.7 |
| 20260510010015 | 58 | 129 | 7.0 | 14.0 | 0.00 | 0.00 | 0.00 | 75 | 1003.7 |
| 20260510004510 | 58 | 122 | 5.0 | 14.0 | 0.00 | 0.00 | 0.00 | 74 | 1003.4 |
| 20260510003020 | 59 | 182 | 7.0 | 14.0 | 0.00 | 0.00 | 0.00 | 73 | 1003.5 |
| 20260510001508 | 60 | 119 | 5.0 | 12.0 | 0.00 | 0.00 | 0.00 | 72 | 1003.4 |
| 20260510000008 | 60 | 156 | 5.0 | 11.0 | 0.00 | 0.00 | 0.00 | 70 | 1003.5 |
| 20260509234512 | 61 | 156 | 3.0 | 7.0 | 0.00 | 0.00 | 0.00 | 68 | 1003.7 |
| 20260509233003 | 61 | 168 | 5.0 | 12.0 | 0.00 | 0.00 | 0.00 | 67 | 1003.9 |
| 20260509231504 | 62 | 192 | 3.0 | 9.0 | 0.00 | 0.00 | 0.00 | 66 | 1004.1 |
| 20260509230002 | 62 | 199 | 3.0 | 11.0 | 0.00 | 0.00 | 0.00 | 65 | 1004.1 |
| 20260509224500 | 62 | 146 | 5.0 | 16.0 | 0.00 | 0.00 | 0.00 | 64 | 1004.1 |
| 20260509223100 | 63 | 204 | 6.0 | 13.0 | 0.00 | 0.00 | 0.00 | 62 | 1004.2 |
| 20260509221559 | 63 | 229 | 8.0 | 14.0 | 0.00 | 0.00 | 0.00 | 62 | 1004.1 |
| 20260509220109 | 63 | 211 | 8.0 | 18.0 | 0.00 | 0.00 | 0.00 | 61 | 1004.1 |
| 20260509214559 | 63 | 226 | 7.0 | 14.0 | 0.00 | 0.00 | 0.00 | 60 | 1004.3 |
| 20260509213055 | 63 | 192 | 7.0 | 14.0 | 0.00 | 0.00 | 0.00 | 59 | 1004.3 |
| 20260509211556 | 63 | 165 | 9.0 | 15.0 | 0.00 | 0.00 | 0.00 | 57 | 1004.5 |
| 20260509210052 | 63 | 228 | 11.0 | 18.0 | 0.00 | 0.00 | 0.00 | 57 | 1004.7 |
| 20260509204552 | 63 | 148 | 8.0 | 20.0 | 0.00 | 0.00 | 0.00 | 58 | 1004.5 |
| 20260509203114 | 63 | 221 | 8.0 | 18.0 | 0.00 | 0.00 | 0.00 | 59 | 1004.7 |
| 20260509201601 | 63 | 210 | 7.0 | 17.0 | 0.00 | 0.00 | 0.00 | 61 | 1004.9 |
| 20260509200056 | 64 | 233 | 11.0 | 22.0 | 0.00 | 0.00 | 0.00 | 62 | 1004.7 |
| 20260509194547 | 64 | 222 | 8.0 | 21.0 | 0.00 | 0.00 | 0.00 | 61 | 1004.8 |
| 20260509193049 | 64 | 232 | 12.0 | 19.0 | 0.00 | 0.00 | 0.00 | 59 | 1005.0 |
| 20260509191555 | 64 | 257 | 11.0 | 17.0 | 0.00 | 0.00 | 0.00 | 59 | 1005.2 |
| 20260509190043 | 64 | 216 | 13.0 | 19.0 | 0.00 | 0.00 | 0.00 | 58 | 1005.2 |
| 20260509184540 | 63 | 217 | 6.0 | 15.0 | 0.00 | 0.00 | 0.00 | 56 | 1005.6 |
| 20260509183038 | 63 | 174 | 3.0 | 16.0 | 0.00 | 0.00 | 0.00 | 57 | 1005.9 |
| 20260509181539 | 62 | 259 | 7.0 | 13.0 | 0.00 | 0.00 | 0.00 | 55 | 1005.9 |
| 20260509180035 | 62 | 202 | 8.0 | 13.0 | 0.00 | 0.00 | 0.00 | 55 | 1005.9 |
| 20260509174534 | 62 | 158 | 5.0 | 15.0 | 0.00 | 0.00 | 0.00 | 56 | 1006.1 |
| 20260509173033 | 62 | 238 | 11.0 | 19.0 | 0.00 | 0.00 | 0.00 | 59 | 1006.3 |
| 20260509171533 | 62 | 131 | 6.0 | 14.0 | 0.00 | 0.00 | 0.00 | 55 | 1006.3 |
| 20260509170028 | 61 | 163 | 6.0 | 11.0 | 0.00 | 0.00 | 0.00 | 57 | 1006.6 |
| 20260509164525 | 61 | 198 | 4.0 | 12.0 | 0.00 | 0.00 | 0.00 | 56 | 1006.9 |